Location: *
(43.2048°N, 0.1612°E)
Time: 20:50:16
(UTC+00:00)

ARIANE 5 R/B - Pass Details

Date: 30 September 2023
Orbit: 748 x 793 km, 98.8° (Epoch: 06 December)

Event Time Altitude Azimuth Distance (km) Brightness Sun altitude
Rises 05:21:58 0° 6° (N) 3,233 5.9 -6.9°
Reaches altitude 10° 05:24:24 10° 360° (N) 2,297 5.0 -6.4°
Maximum altitude 05:29:04 40° 292° (WNW) 1,107 2.9 -5.6°
Drops below altitude 10° 05:33:41 10° 224° (SW) 2,265 4.5 -4.7°
Sets 05:36:04 0° 217° (SW) 3,182 5.3 -4.3°
